Flag for Canada Weather past 2 weeks in Annapolis County, Nova Scotia, Canada

Now
30 °F

Chilly.


Feels Like: 26 °F
Forecast: 31 / 34 °F
Wind: 5 mph from West

Location: Kejimkujik 1

Current Time: Dec 19, 2014 at 7:08:12 AM

Latest Report: Dec 19, 2014 at 6:00 AM


Visibility: N/A

Pressure: 29.62 "Hg

Humidity: 98%

Dew point: 30 °F

Location of Annapolis CountyLocation

Historic Weather in Annapolis County — Graph

°F

Annapolis County temperature yesterday

Maximum temperature yesterday: 45 °F (at 2:00 AM)
Minimum temperature yesterday: 32 °F (at 9:00 PM)
Average temperature yesterday: 37 °F

Past Weeks' High & Low Weather Summary

 TemperatureHumidityPressure
High56 °F (Dec 11, 12:00 AM)100% (Dec 6, 9:00 AM)30.78 "Hg (Dec 6, 9:00 AM)
Low11 °F (Dec 8, 8:00 AM)49% (Dec 5, 2:00 PM)29.35 "Hg (Dec 18, 6:00 AM)
Average33 °F89%30.04 "Hg
* Reported Dec 4 6:00 AM — Dec 19 6:00 AM, Annapolis County, Weather by CustomWeather, © 2014

Note: Actual official high and low records may vary slightly from our data, if they occured in-between our weather recording intervals... More about our weather records

Advertising

Annapolis County weather history for previous 24 hours

 ConditionsComfort  
Time TempWeatherWind HumidityBarometerVisibility
6:00 AM
Dec 19
30 °FChilly.5 mph98%29.62 "HgN/A
5:00 AM31 °FChilly.5 mph98%29.60 "HgN/A
4:00 AM31 °FChilly.6 mph99%29.60 "HgN/A
3:00 AM31 °FChilly.6 mph99%29.58 "HgN/A
2:00 AM33 °FChilly.7 mph92%29.56 "HgN/A
1:00 AM31 °FChilly.7 mph100%29.53 "HgN/A
12:00 AM31 °FChilly.8 mph98%29.52 "HgN/A
11:00 PM
Dec 18
32 °FChilly.8 mph100%29.51 "HgN/A
10:00 PM32 °FChilly.7 mph100%29.49 "HgN/A
9:00 PM32 °FChilly.8 mph97%29.49 "HgN/A
8:00 PM32 °FChilly.7 mph100%29.48 "HgN/A
7:00 PM32 °FChilly.6 mph100%29.47 "HgN/A
6:00 PM32 °FChilly.6 mph97%29.46 "HgN/A
5:00 PM32 °FChilly.7 mph98%29.44 "HgN/A
4:00 PM33 °FChilly.7 mph94%29.43 "HgN/A
3:00 PM35 °FChilly.7 mph95%29.42 "HgN/A
2:00 PM35 °FChilly.7 mph94%29.41 "HgN/A
1:00 PM36 °FChilly.7 mph91%29.42 "HgN/A
12:00 PM37 °FChilly.7 mph92%29.43 "HgN/A
11:00 AM38 °FChilly.8 mph91%29.44 "HgN/A
10:00 AM37 °FChilly.7 mph90%29.45 "HgN/A
9:00 AM37 °FChilly.10 mph96%29.44 "HgN/A
8:00 AM38 °FChilly.7 mph97%29.42 "HgN/A
7:00 AM43 °FQuite cool.9 mph97%29.38 "HgN/A
Weather by CustomWeather, © 2014

See weather overviewHow to use our weather pages